FW0246 Weather Reports


Display with metric or nautical units.
time (UTC)temp
F
wind
direction
speed
MPH
gust
MPH
rain 1hr
in
rain 24hr
in
rain mn
in
humidity
%
barometer
mb
20260502195404 58 198 0.0 1.0 0.00 0.00 0.00 74 1015.5
20260502194717 59 0 0.0 0.0 0.00 0.00 0.00 74 1015.6
20260502192703 60 0 0.0 0.0 0.00 0.00 0.00 71 1015.5
20260502191804 61 198 0.0 1.0 0.00 0.00 0.00 71 1015.4
20260502190903 62 198 0.0 1.0 0.00 0.00 0.00 70 1015.3
20260502190003 63 0 0.0 0.0 0.00 0.00 0.00 69 1015.3
20260502185403 64 0 0.0 0.0 0.00 0.00 0.00 67 1015.3
20260502184503 65 0 0.0 0.0 0.00 0.00 0.00 66 1015.3
20260502183603 66 0 0.0 0.0 0.00 0.00 0.00 64 1015.3
20260502182703 66 0 0.0 0.0 0.00 0.00 0.00 62 1015.2
20260502182019 67 0 0.0 0.0 0.00 0.00 0.00 62 1015.3
20260502180903 68 0 0.0 0.0 0.00 0.00 0.00 62 1015.3
20260502170217 73 0 0.0 0.0 0.00 0.00 0.00 53 1015.3
20260502163603 74 216 1.0 4.0 0.00 0.00 0.00 49 1015.6
20260502162919 74 207 0.0 3.0 0.00 0.00 0.00 50 1015.5
20260502161803 74 191 1.0 4.0 0.00 0.00 0.00 51 1015.7
20260502160903 75 219 1.0 5.0 0.00 0.00 0.00 52 1015.8
20260502151803 78 216 2.0 8.0 0.00 0.00 0.00 52 1016.1
20260502151117 79 201 2.0 8.0 0.00 0.00 0.00 49 1016.2
20260502123603 81 208 1.0 3.0 0.00 0.00 0.00 50 1018.2
20260502122703 80 210 1.0 5.0 0.00 0.00 0.00 47 1018.4
20260502121803 80 252 1.0 4.0 0.00 0.00 0.00 46 1018.5
20260502120903 80 203 2.0 7.0 0.00 0.00 0.00 48 1018.6
20260502120219 80 194 1.0 5.0 0.00 0.00 0.00 49 1018.7
20260502115403 79 190 2.0 5.0 0.00 0.00 0.00 46 1018.8
20260502113603 79 217 1.0 8.0 0.00 0.00 0.00 48 1019.1
20260502112703 78 236 1.0 9.0 0.00 0.00 0.00 50 1019.2
20260502111803 78 263 1.0 4.0 0.00 0.00 0.00 50 1019.4
20260502110903 77 244 1.0 4.0 0.00 0.00 0.00 54 1019.4
20260502110003 77 236 0.0 4.0 0.00 0.00 0.00 53 1019.5
20260502105403 76 263 1.0 6.0 0.00 0.00 0.00 54 1019.6
20260502104503 76 242 1.0 6.0 0.00 0.00 0.00 55 1019.7
20260502103603 75 244 0.0 4.0 0.00 0.00 0.00 56 1019.8
20260502102916 74 251 1.0 3.0 0.00 0.00 0.00 54 1020.0
20260502102016 74 243 0.0 4.0 0.00 0.00 0.00 56 1020.1
20260502100903 72 270 0.0 3.0 0.00 0.00 0.00 58 1020.2
20260502100219 71 262 0.0 3.0 0.00 0.00 0.00 60 1020.3
20260502090903 63 0 0.0 0.0 0.00 0.00 0.00 73 1020.9
20260502070903 53 216 0.0 1.0 0.00 0.00 0.00 78 1021.4
20260502070003 52 209 0.0 2.0 0.00 0.00 0.00 77 1021.6
20260502065403 52 209 1.0 2.0 0.00 0.00 0.00 78 1021.6
20260502064503 52 0 0.0 0.0 0.00 0.00 0.00 79 1021.5
20260502063820 51 208 0.0 2.0 0.00 0.00 0.00 79 1021.6
20260502062703 50 207 0.0 2.0 0.00 0.00 0.00 82 1021.7
20260502061803 49 206 0.0 1.0 0.00 0.00 0.00 85 1021.8
20260502060903 47 206 0.0 2.0 0.00 0.00 0.00 86 1021.9
20260502060004 46 206 0.0 1.0 0.00 0.00 0.00 86 1022.1
20260502055617 46 206 0.0 1.0 0.00 0.00 0.00 87 1022.1
20260502054716 45 0 0.0 0.0 0.00 0.00 0.00 89 1022.3
20260502053604 44 206 0.0 2.0 0.00 0.00 0.00 90 1022.5
20260502052703 43 206 0.0 2.0 0.00 0.00 0.00 93 1022.4
20260502051803 42 206 0.0 1.0 0.00 0.00 0.00 94 1022.1
20260502050903 41 206 0.0 1.0 0.00 0.00 0.00 93 1022.0
20260502050003 40 0 0.0 0.0 0.00 0.00 0.00 93 1022.0
20260502045403 40 0 0.0 0.0 0.00 0.00 0.00 92 1021.9
20260502044503 40 0 0.0 0.0 0.00 0.00 0.00 92 1022.0
20260502043603 40 0 0.0 0.0 0.00 0.00 0.00 91 1021.8
20260502042703 39 0 0.0 0.0 0.00 0.00 0.00 91 1021.9
20260502042018 39 206 0.0 1.0 0.00 0.00 0.00 91 1021.8
20260502040903 39 206 0.0 1.0 0.00 0.00 0.00 91 1021.9
20260502040003 40 0 0.0 0.0 0.00 0.00 0.00 90 1021.7
20260502035403 40 0 0.0 0.0 0.00 0.00 0.00 91 1021.7
20260502034719 40 0 0.0 0.0 0.00 0.00 0.00 91 1021.8
20260502033603 40 206 0.0 1.0 0.00 0.00 0.00 90 1022.2
20260502032703 40 166 0.0 1.0 0.00 0.00 0.00 91 1022.2
20260502031803 40 190 0.0 1.0 0.00 0.00 0.00 90 1022.4
20260502030903 40 0 0.0 0.0 0.00 0.00 0.00 90 1022.0
20260502030003 40 0 0.0 0.0 0.00 0.00 0.00 89 1021.9
20260502025403 40 0 0.0 0.0 0.00 0.00 0.00 89 1021.9
20260502024503 40 0 0.0 0.0 0.00 0.00 0.00 89 1022.0
20260502023818 40 0 0.0 0.0 0.00 0.00 0.00 89 1022.1
20260502022703 40 0 0.0 0.0 0.00 0.00 0.00 89 1022.1
20260502021803 40 0 0.0 0.0 0.00 0.00 0.00 89 1022.0
20260502020903 40 0 0.0 0.0 0.00 0.00 0.00 88 1022.1
20260502020003 40 0 0.0 0.0 0.00 0.00 0.00 87 1022.2
20260502015403 40 0 0.0 0.0 0.00 0.00 0.00 87 1022.2
20260502014503 40 0 0.0 0.0 0.00 0.00 0.00 87 1022.2
20260502013603 41 0 0.0 0.0 0.00 0.00 0.00 87 1022.2
20260502012703 41 0 0.0 0.0 0.00 0.00 0.00 87 1022.2
20260502011803 41 0 0.0 0.0 0.00 0.00 0.00 86 1022.2
20260502010903 41 0 0.0 0.0 0.00 0.00 0.00 85 1022.3
20260502010003 42 0 0.0 0.0 0.00 0.00 0.00 85 1022.4
20260502005403 42 0 0.0 0.0 0.00 0.00 0.00 85 1022.4
20260502002917 42 0 0.0 0.0 0.00 0.00 0.00 84 1022.4
20260501233603 43 0 0.0 0.0 0.00 0.00 0.00 81 1022.6
20260501232703 44 0 0.0 0.0 0.00 0.00 0.00 80 1022.8
20260501224717 45 0 0.0 0.0 0.00 0.00 0.00 77 1023.0
20260501223606 46 0 0.0 0.0 0.00 0.00 0.00 75 1023.0
20260501220905 47 0 0.0 0.0 0.00 0.00 0.00 73 1023.1
20260501220005 47 0 0.0 0.0 0.00 0.00 0.00 72 1023.2
20260501215405 47 0 0.0 0.0 0.00 0.00 0.00 72 1023.1
20260501213605 48 0 0.0 0.0 0.00 0.00 0.00 71 1023.1
20260501212705 48 0 0.0 0.0 0.00 0.00 0.00 70 1023.0
20260501211805 49 0 0.0 0.0 0.00 0.00 0.00 69 1022.9
20260501210905 49 0 0.0 0.0 0.00 0.00 0.00 67 1022.9
20260501210003 50 0 0.0 0.0 0.00 0.00 0.00 66 1022.9
20260501205405 50 0 0.0 0.0 0.00 0.00 0.00 66 1023.0
20260501204503 51 0 0.0 0.0 0.00 0.00 0.00 64 1023.0
20260501203603 52 0 0.0 0.0 0.00 0.00 0.00 62 1022.9
20260501202703 53 0 0.0 0.0 0.00 0.00 0.00 61 1022.9
20260501201805 54 0 0.0 0.0 0.00 0.00 0.00 58 1022.9
20260501200905 54 0 0.0 0.0 0.00 0.00 0.00 57 1022.8
20260501200005 55 0 0.0 0.0 0.00 0.00 0.00 55 1022.8